Meeker, CO

9:33 PM MDT on May 27, 2017 (GMT -0600)
Meeker

Weather History for KEEO - September, 2013

Change the Weather History Date:

Tuesday, September 10, 2013

  Actual Average Record
Temperature  
Mean Temperature 60 °F 59 °F  
Max Temperature 65 °F 76 °F 84 °F (2015)
Min Temperature 54 °F 42 °F 29 °F (2016)
Degree Days  
Heating Degree Days 5 6  
Month to date heating degree days 14 46  
Since 1 July heating degree days 33 100  
Cooling Degree Days 0 0  
Month to date cooling degree days 40 0  
Year to date cooling degree days 323 168  
Growing Degree Days 9 (Base 50)    
Moisture  
Dew Point 54 °F    
Average Humidity 86    
Maximum Humidity 100    
Minimum Humidity 72    
Precipitation  
Precipitation 0.21 in 0.06 in 0.88 in (2003)
Month to date precipitation 1.14 0.55  
Year to date precipitation 11.23 10.41  
Sea Level Pressure  
Sea Level Pressure 30.02 in    
Wind  
Wind Speed 4 mph (WSW)    
Max Wind Speed 13 mph    
Max Gust Speed 16 mph    
Visibility 9 miles    
Events Rain    
T = Trace of Precipitation, MM = Missing Value Source: NWS Daily Summary

Daily Weather History Graph

Daily Weather History Graph

Search for Another Location

Airport or City:

Trip Planner

Search our weather history database for the weather conditions in past years. The results will help you decide how hot, cold, wet, or windy it might be!

Date:

Astronomy

Sep. 10, 2013 Rise Set
Actual Time 6:48 AM MDT 7:28 PM MDT
Civil Twilight 6:20 AM MDT 7:55 PM MDT
Nautical Twilight 5:48 AM MDT 8:27 PM MDT
Astronomical Twilight 5:14 AM MDT 9:00 PM MDT
Moon 12:16 PM MDT (9/10) 10:33 PM MDT (9/10)
Length of Visible Light 13h 34m
Length of Day
12h 39m
Waxing Crescent, 29% of the Moon is Illuminated
Sep 10
Waxing Crescent
Sep 12
First Quarter
Sep 19
Full
Sep 26
Last Quarter
Oct 4
New

Hourly Weather History & Observations

Time (MDT) Temp. Dew Point Humidity Pressure Visibility Wind Dir Wind Speed Gust Speed Precip Events Conditions
12:53 AM 55.0 °F 54.0 °F 96% 29.97 in 10.0 mi Calm Calm - N/A   Overcast
1:53 AM 55.0 °F 53.1 °F 93% 29.99 in 8.0 mi ESE 5.8 mph - 0.01 in Rain Light Rain
2:53 AM 54.0 °F 53.1 °F 97% 29.99 in 8.0 mi SE 3.5 mph - 0.06 in Rain Light Rain
3:53 AM 54.0 °F 53.1 °F 97% 29.96 in 10.0 mi Calm Calm - 0.05 in Rain Light Rain
4:53 AM 55.0 °F 52.0 °F 89% 29.94 in 10.0 mi Calm Calm - 0.02 in   Overcast
5:53 AM 55.0 °F 52.0 °F 89% 29.95 in 10.0 mi Calm Calm - 0.00 in   Overcast
6:53 AM 55.0 °F 52.0 °F 89% 29.96 in 10.0 mi Calm Calm - N/A   Overcast
7:53 AM 54.0 °F 53.1 °F 97% 29.98 in 10.0 mi Calm Calm - N/A   Overcast
8:53 AM 55.9 °F 53.1 °F 90% 29.99 in 10.0 mi Calm Calm - N/A   Overcast
9:53 AM 60.1 °F 53.1 °F 78% 29.98 in 10.0 mi Calm Calm - N/A   Overcast
10:53 AM 57.9 °F 54.0 °F 87% 30.01 in 10.0 mi WSW 11.5 mph - N/A   Overcast
11:53 AM 60.1 °F 55.0 °F 83% 29.99 in 10.0 mi WNW 4.6 mph - 0.00 in Rain Light Rain
12:53 PM 63.0 °F 55.0 °F 75% 29.98 in 10.0 mi South 8.1 mph - 0.00 in   Mostly Cloudy
1:53 PM 64.0 °F 57.0 °F 78% 29.97 in 10.0 mi WSW 9.2 mph - 0.00 in Rain Light Rain
2:53 PM 63.0 °F 55.0 °F 75% 29.97 in 10.0 mi West 11.5 mph - 0.00 in   Overcast
3:53 PM 61.0 °F 53.1 °F 75% 29.98 in 10.0 mi WNW 10.4 mph - 0.00 in Rain Light Rain
4:11 PM 59.0 °F 55.4 °F 88% 30.19 in 5.0 mi SW 11.5 mph - 0.02 in Rain Rain
4:21 PM 57.2 °F 55.4 °F 94% 30.19 in 2.5 mi SW 5.8 mph - 0.05 in Rain Rain
4:31 PM 57.2 °F 55.4 °F 94% 30.19 in 4.0 mi Calm Calm - 0.06 in Rain Light Rain
4:44 PM 57.2 °F 55.4 °F 94% 30.19 in 6.0 mi Calm Calm - 0.06 in Rain Light Rain
4:53 PM 57.9 °F 55.0 °F 90% 30.01 in 7.0 mi South 3.5 mph - 0.06 in Rain Light Rain
5:53 PM 59.0 °F 55.9 °F 90% 30.00 in 10.0 mi Calm Calm - 0.01 in   Overcast
6:53 PM 60.1 °F 52.0 °F 75% 29.99 in 10.0 mi NE 6.9 mph - N/A   Overcast
7:53 PM 57.9 °F 52.0 °F 81% 30.01 in 10.0 mi NE 5.8 mph - N/A   Partly Cloudy
8:53 PM 59.0 °F 53.1 °F 81% 30.01 in 10.0 mi NE 4.6 mph - N/A   Overcast
9:53 PM 55.9 °F 54.0 °F 93% 30.01 in 10.0 mi Calm Calm - N/A   Scattered Clouds
10:53 PM 55.9 °F 54.0 °F 93% 30.02 in 10.0 mi West 3.5 mph - N/A   Partly Cloudy
11:53 PM 55.9 °F 54.0 °F 93% 30.01 in 10.0 mi Calm Calm - N/A   Overcast